| time (UTC) | temp C | wind direction | speed KPH | gust KPH | rain 1hr cm | rain 24hr cm | rain mn cm | humidity % | barometer mb |
| 20260903145852 | 22 | 248 | 9.7 | 19.3 | 0.00 | 0.00 | 0.00 | 83 | 1017.8 |
| 20260903144819 | 22 | 248 | 9.7 | 16.1 | 0.00 | 0.00 | 0.00 | 83 | 1017.9 |
| 20260903143819 | 22 | 270 | 9.7 | 14.5 | 0.00 | 0.00 | 0.00 | 81 | 1018.0 |
| 20260903142819 | 22 | 270 | 9.7 | 16.1 | 0.00 | 0.00 | 0.00 | 80 | 1018.1 |
| 20260903141851 | 22 | 270 | 8.0 | 11.3 | 0.00 | 0.00 | 0.00 | 81 | 1018.1 |
| 20260903140850 | 22 | 270 | 8.0 | 14.5 | 0.00 | 0.00 | 0.00 | 81 | 1018.0 |
| 20260903135819 | 22 | 270 | 11.3 | 20.9 | 0.00 | 0.00 | 0.00 | 83 | 1018.1 |
| 20260903134830 | 22 | 270 | 11.3 | 19.3 | 0.00 | 0.00 | 0.00 | 84 | 1018.2 |
| 20260903133830 | 22 | 248 | 6.4 | 14.5 | 0.00 | 0.00 | 0.00 | 84 | 1018.3 |
| 20260903132819 | 22 | 248 | 8.0 | 11.3 | 0.00 | 0.00 | 0.00 | 84 | 1018.2 |
| 20260903131910 | 22 | 248 | 9.7 | 14.5 | 0.00 | 0.00 | 0.00 | 83 | 1018.2 |
| 20260903130820 | 22 | 270 | 9.7 | 14.5 | 0.00 | 0.00 | 0.00 | 83 | 1018.3 |
| 20260903125900 | 22 | 248 | 9.7 | 16.1 | 0.00 | 0.00 | 0.00 | 83 | 1018.2 |
| 20260903124820 | 22 | 270 | 11.3 | 29.0 | 0.00 | 0.00 | 0.00 | 83 | 1018.2 |
| 20260903123850 | 22 | 293 | 8.0 | 14.5 | 0.00 | 0.00 | 0.00 | 83 | 1018.0 |
| 20260903122852 | 22 | 270 | 9.7 | 20.9 | 0.00 | 0.00 | 0.00 | 82 | 1018.1 |
| 20260903121820 | 22 | 270 | 8.0 | 14.5 | 0.00 | 0.00 | 0.00 | 81 | 1018.2 |
| 20260903120841 | 22 | 248 | 11.3 | 22.5 | 0.00 | 0.00 | 0.00 | 81 | 1018.2 |
| 20260903115820 | 22 | 270 | 6.4 | 11.3 | 0.00 | 0.00 | 0.00 | 81 | 1018.3 |
| 20260903114850 | 22 | 270 | 9.7 | 19.3 | 0.00 | 0.00 | 0.00 | 81 | 1018.3 |
| 20260903113830 | 22 | 248 | 9.7 | 16.1 | 0.00 | 0.00 | 0.00 | 82 | 1018.2 |
| 20260903112840 | 22 | 248 | 8.0 | 14.5 | 0.00 | 0.00 | 0.00 | 83 | 1018.2 |
| 20260903111850 | 22 | 248 | 11.3 | 20.9 | 0.00 | 0.00 | 0.00 | 84 | 1018.1 |
| 20260903110830 | 22 | 270 | 8.0 | 11.3 | 0.00 | 0.00 | 0.00 | 84 | 1018.2 |
| 20260903105820 | 22 | 270 | 11.3 | 16.1 | 0.00 | 0.00 | 0.00 | 84 | 1018.1 |
| 20260903104830 | 21 | 270 | 8.0 | 14.5 | 0.00 | 0.00 | 0.00 | 86 | 1018.2 |
| 20260903103830 | 21 | 270 | 4.8 | 9.7 | 0.00 | 0.00 | 0.00 | 88 | 1018.2 |
| 20260903102830 | 21 | 248 | 4.8 | 8.0 | 0.00 | 0.00 | 0.00 | 88 | 1018.4 |
| 20260903101819 | 21 | 270 | 6.4 | 12.9 | 0.00 | 0.00 | 0.00 | 89 | 1018.4 |
| 20260903100830 | 20 | 225 | 9.7 | 16.1 | 0.00 | 0.00 | 0.00 | 89 | 1018.3 |
| 20260903095819 | 20 | 270 | 4.8 | 9.7 | 0.00 | 0.00 | 0.00 | 90 | 1018.2 |
| 20260903094839 | 20 | 225 | 9.7 | 20.9 | 0.00 | 0.00 | 0.00 | 89 | 1018.1 |
| 20260903093819 | 20 | 270 | 9.7 | 17.7 | 0.00 | 0.00 | 0.00 | 90 | 1018.1 |
| 20260903092840 | 20 | 225 | 14.5 | 19.3 | 0.00 | 0.03 | 0.00 | 90 | 1017.7 |
| 20260903091830 | 20 | 225 | 6.4 | 9.7 | 0.00 | 0.03 | 0.00 | 91 | 1018.0 |
| 20260903090819 | 20 | 270 | 6.4 | 12.9 | 0.00 | 0.03 | 0.00 | 91 | 1017.9 |
| 20260903085830 | 20 | 225 | 9.7 | 14.5 | 0.00 | 0.03 | 0.00 | 91 | 1017.8 |
| 20260903084819 | 20 | 248 | 9.7 | 19.3 | 0.00 | 0.03 | 0.00 | 91 | 1017.7 |
| 20260903083819 | 20 | 270 | 9.7 | 17.7 | 0.00 | 0.03 | 0.00 | 91 | 1017.7 |
| 20260903082819 | 20 | 225 | 4.8 | 6.4 | 0.00 | 0.03 | 0.00 | 91 | 1017.5 |
| 20260903081819 | 19 | 270 | 6.4 | 11.3 | 0.00 | 0.03 | 0.00 | 90 | 1017.6 |
| 20260903080820 | 19 | 248 | 12.9 | 22.5 | 0.00 | 0.03 | 0.00 | 91 | 1017.9 |
| 20260903075839 | 19 | 248 | 6.4 | 12.9 | 0.00 | 0.03 | 0.00 | 90 | 1017.7 |
| 20260903074830 | 19 | 293 | 3.2 | 8.0 | 0.00 | 0.03 | 0.00 | 90 | 1017.7 |
| 20260903073819 | 19 | 248 | 6.4 | 12.9 | 0.00 | 0.03 | 0.00 | 90 | 1017.6 |
| 20260903072819 | 19 | 270 | 6.4 | 11.3 | 0.00 | 0.03 | 0.00 | 90 | 1017.5 |
| 20260903071830 | 19 | 248 | 6.4 | 11.3 | 0.00 | 0.03 | 0.00 | 89 | 1017.5 |
| 20260903070830 | 19 | 270 | 9.7 | 19.3 | 0.00 | 0.03 | 0.00 | 89 | 1017.5 |
| 20260903065859 | 19 | 270 | 6.4 | 17.7 | 0.00 | 0.03 | 0.00 | 89 | 1017.3 |
| 20260903064819 | 19 | 270 | 4.8 | 9.7 | 0.00 | 0.03 | 0.00 | 89 | 1017.2 |
| 20260903063819 | 19 | 293 | 6.4 | 9.7 | 0.00 | 0.03 | 0.00 | 89 | 1016.9 |
| 20260903062819 | 19 | 270 | 11.3 | 19.3 | 0.00 | 0.03 | 0.00 | 89 | 1016.8 |
| 20260903061819 | 19 | 248 | 6.4 | 11.3 | 0.00 | 0.03 | 0.00 | 88 | 1017.0 |
| 20260903060830 | 19 | 270 | 6.4 | 12.9 | 0.00 | 0.03 | 0.00 | 88 | 1016.6 |
| 20260903055830 | 19 | 293 | 11.3 | 20.9 | 0.00 | 0.03 | 0.00 | 88 | 1016.3 |
| 20260903054819 | 19 | 270 | 9.7 | 33.8 | 0.00 | 0.03 | 0.00 | 88 | 1016.1 |
| 20260903053849 | 19 | 270 | 8.0 | 16.1 | 0.00 | 0.03 | 0.00 | 88 | 1016.3 |
| 20260903052819 | 19 | 225 | 11.3 | 27.4 | 0.00 | 0.03 | 0.00 | 87 | 1016.4 |
| 20260903051819 | 19 | 248 | 8.0 | 12.9 | 0.00 | 0.03 | 0.00 | 87 | 1016.4 |
| 20260903050819 | 19 | 270 | 4.8 | 9.7 | 0.00 | 0.03 | 0.00 | 87 | 1016.3 |
| 20260903045819 | 19 | 270 | 4.8 | 9.7 | 0.00 | 0.03 | 0.00 | 86 | 1016.4 |
| 20260903044819 | 18 | 270 | 6.4 | 9.7 | 0.00 | 0.03 | 0.00 | 87 | 1016.4 |
| 20260903043819 | 18 | 270 | 6.4 | 12.9 | 0.00 | 0.03 | 0.00 | 87 | 1016.4 |
| 20260903042819 | 18 | 248 | 8.0 | 12.9 | 0.00 | 0.03 | 0.00 | 87 | 1016.7 |
| 20260903041819 | 19 | 248 | 8.0 | 16.1 | 0.00 | 0.03 | 0.00 | 87 | 1016.5 |
| 20260903040819 | 19 | 248 | 4.8 | 8.0 | 0.00 | 0.03 | 0.00 | 87 | 1016.5 |
| 20260903035819 | 19 | 203 | 8.0 | 16.1 | 0.00 | 0.03 | 0.00 | 87 | 1016.5 |
| 20260903034839 | 19 | 225 | 11.3 | 32.2 | 0.00 | 0.03 | 0.00 | 86 | 1016.4 |
| 20260903033819 | 19 | 225 | 6.4 | 16.1 | 0.00 | 0.03 | 0.00 | 86 | 1016.7 |
| 20260903032819 | 19 | 270 | 6.4 | 12.9 | 0.00 | 0.03 | 0.00 | 86 | 1016.9 |
| 20260903031819 | 19 | 270 | 6.4 | 12.9 | 0.00 | 0.03 | 0.00 | 86 | 1016.7 |
| 20260903030829 | 19 | 248 | 6.4 | 12.9 | 0.00 | 0.03 | 0.00 | 86 | 1016.7 |
| 20260903025829 | 19 | 270 | 8.0 | 14.5 | 0.00 | 0.03 | 0.00 | 86 | 1016.7 |
| 20260903024843 | 19 | 270 | 8.0 | 11.3 | 0.00 | 0.03 | 0.00 | 86 | 1016.6 |
| 20260903023829 | 19 | 248 | 8.0 | 12.9 | 0.00 | 0.03 | 0.00 | 86 | 1016.7 |
| 20260903022819 | 19 | 248 | 6.4 | 14.5 | 0.00 | 0.03 | 0.00 | 86 | 1016.9 |
| 20260903021819 | 19 | 270 | 4.8 | 9.7 | 0.00 | 0.03 | 0.00 | 86 | 1017.0 |
| 20260903020839 | 19 | 270 | 9.7 | 14.5 | 0.00 | 0.03 | 0.00 | 87 | 1016.8 |
| 20260903015818 | 19 | 270 | 6.4 | 9.7 | 0.00 | 0.03 | 0.00 | 86 | 1017.1 |
| 20260903014819 | 19 | 270 | 6.4 | 12.9 | 0.00 | 0.03 | 0.00 | 86 | 1017.2 |
| 20260903013912 | 19 | 248 | 8.0 | 14.5 | 0.00 | 0.03 | 0.00 | 86 | 1017.0 |
| 20260903012820 | 19 | 270 | 4.8 | 8.0 | 0.00 | 0.03 | 0.00 | 86 | 1017.1 |
| 20260903011903 | 19 | 270 | 8.0 | 12.9 | 0.00 | 0.03 | 0.00 | 86 | 1016.8 |
| 20260903010839 | 19 | 248 | 6.4 | 9.7 | 0.00 | 0.03 | 0.00 | 86 | 1016.9 |
| 20260903005831 | 19 | 225 | 9.7 | 12.9 | 0.00 | 0.03 | 0.00 | 86 | 1016.9 |
| 20260903004819 | 18 | 225 | 8.0 | 11.3 | 0.00 | 0.03 | 0.00 | 85 | 1017.1 |
| 20260903003820 | 18 | 225 | 6.4 | 11.3 | 0.00 | 0.03 | 0.00 | 83 | 1017.2 |
| 20260903002911 | 18 | 225 | 6.4 | 12.9 | 0.00 | 0.03 | 0.00 | 82 | 1017.6 |
| 20260903001820 | 18 | 225 | 3.2 | 8.0 | 0.00 | 0.03 | 0.00 | 80 | 1017.6 |
| 20260903000818 | 18 | 225 | 6.4 | 8.0 | 0.00 | 0.03 | 0.00 | 79 | 1017.5 |
| 20260902235830 | 18 | 225 | 4.8 | 4.8 | 0.00 | 0.03 | 0.03 | 79 | 1017.8 |
| 20260902234859 | 18 | 225 | 3.2 | 8.0 | 0.00 | 0.03 | 0.03 | 79 | 1017.6 |
| 20260902233829 | 18 | 203 | 8.0 | 14.5 | 0.00 | 0.03 | 0.03 | 79 | 1017.5 |
| 20260902232830 | 18 | 203 | 6.4 | 9.7 | 0.00 | 0.03 | 0.03 | 80 | 1017.9 |
| 20260902231819 | 18 | 225 | 6.4 | 9.7 | 0.00 | 0.03 | 0.03 | 79 | 1018.2 |
| 20260902230830 | 19 | 203 | 6.4 | 9.7 | 0.00 | 0.03 | 0.03 | 80 | 1018.0 |
| 20260902225830 | 19 | 248 | 6.4 | 11.3 | 0.00 | 0.03 | 0.03 | 80 | 1017.9 |
| 20260902224819 | 19 | 248 | 8.0 | 11.3 | 0.00 | 0.03 | 0.03 | 79 | 1018.1 |
| 20260902223819 | 19 | 248 | 6.4 | 12.9 | 0.00 | 0.03 | 0.03 | 77 | 1018.1 |
| 20260902222850 | 19 | 225 | 9.7 | 19.3 | 0.00 | 0.03 | 0.03 | 77 | 1018.3 |
| 20260902221818 | 19 | 225 | 8.0 | 12.9 | 0.00 | 0.03 | 0.03 | 77 | 1018.2 |
| 20260902220819 | 19 | 225 | 9.7 | 14.5 | 0.00 | 0.03 | 0.03 | 76 | 1018.2 |
| 20260902215819 | 19 | 203 | 11.3 | 19.3 | 0.00 | 0.03 | 0.03 | 77 | 1018.4 |
| 20260902214851 | 19 | 225 | 6.4 | 11.3 | 0.00 | 0.03 | 0.03 | 77 | 1018.4 |
| 20260902213819 | 19 | 225 | 8.0 | 12.9 | 0.00 | 0.03 | 0.03 | 76 | 1018.3 |
| 20260902212819 | 19 | 225 | 4.8 | 9.7 | 0.00 | 0.03 | 0.03 | 76 | 1018.3 |
| 20260902211820 | 19 | 225 | 8.0 | 11.3 | 0.00 | 0.03 | 0.03 | 76 | 1018.5 |
| 20260902211015 | 18 | 270 | 4.8 | 8.0 | 0.00 | 0.03 | 0.03 | 76 | 1018.7 |
| 20260902205818 | 18 | 225 | 6.4 | 9.7 | 0.00 | 0.03 | 0.03 | 76 | 1018.5 |
| 20260902204840 | 18 | 248 | 9.7 | 14.5 | 0.00 | 0.03 | 0.03 | 76 | 1018.5 |
| 20260902203818 | 18 | 225 | 9.7 | 14.5 | 0.00 | 0.03 | 0.03 | 75 | 1018.6 |
| 20260902202819 | 18 | 225 | 11.3 | 19.3 | 0.00 | 0.03 | 0.03 | 75 | 1018.6 |
| 20260902202016 | 18 | 225 | 6.4 | 9.7 | 0.00 | 0.03 | 0.03 | 75 | 1018.7 |
| 20260902201020 | 19 | 225 | 6.4 | 9.7 | 0.00 | 0.03 | 0.03 | 74 | 1018.7 |
| 20260902200020 | 19 | 225 | 9.7 | 16.1 | 0.00 | 0.03 | 0.03 | 73 | 1018.7 |
| 20260902195020 | 19 | 225 | 6.4 | 11.3 | 0.00 | 0.03 | 0.03 | 73 | 1018.8 |
| 20260902194020 | 19 | 203 | 8.0 | 14.5 | 0.00 | 0.03 | 0.03 | 73 | 1018.9 |
| 20260902193020 | 19 | 248 | 6.4 | 14.5 | 0.00 | 0.03 | 0.03 | 72 | 1018.9 |
| 20260902192029 | 19 | 225 | 6.4 | 11.3 | 0.00 | 0.03 | 0.03 | 72 | 1018.8 |
| 20260902191039 | 19 | 203 | 6.4 | 11.3 | 0.00 | 0.03 | 0.03 | 71 | 1018.8 |
| 20260902190019 | 19 | 225 | 4.8 | 9.7 | 0.00 | 0.03 | 0.03 | 71 | 1018.6 |
| 20260902185019 | 19 | 225 | 6.4 | 11.3 | 0.00 | 0.03 | 0.03 | 71 | 1018.7 |
| 20260902184020 | 19 | 203 | 4.8 | 6.4 | 0.00 | 0.03 | 0.03 | 70 | 1018.8 |
| 20260902183020 | 19 | 225 | 8.0 | 11.3 | 0.00 | 0.03 | 0.03 | 70 | 1018.8 |
| 20260902182020 | 19 | 203 | 6.4 | 12.9 | 0.00 | 0.03 | 0.03 | 69 | 1018.7 |
| 20260902181020 | 19 | 225 | 6.4 | 9.7 | 0.00 | 0.03 | 0.03 | 69 | 1018.7 |
| 20260902180020 | 20 | 225 | 8.0 | 11.3 | 0.00 | 0.03 | 0.03 | 67 | 1018.7 |
| 20260902175020 | 20 | 225 | 8.0 | 11.3 | 0.00 | 0.03 | 0.03 | 67 | 1018.7 |
| 20260902174050 | 20 | 225 | 6.4 | 14.5 | 0.00 | 0.03 | 0.03 | 66 | 1018.7 |
| 20260902173020 | 20 | 225 | 4.8 | 11.3 | 0.00 | 0.03 | 0.03 | 67 | 1019.0 |
| 20260902172020 | 20 | 225 | 8.0 | 11.3 | 0.00 | 0.03 | 0.03 | 66 | 1018.9 |
| 20260902171020 | 20 | 225 | 8.0 | 12.9 | 0.00 | 0.03 | 0.03 | 66 | 1018.9 |
| 20260902170020 | 20 | 270 | 4.8 | 6.4 | 0.00 | 0.03 | 0.03 | 65 | 1019.1 |
| 20260902165020 | 20 | 270 | 4.8 | 8.0 | 0.00 | 0.03 | 0.03 | 65 | 1019.0 |
| 20260902164226 | 20 | 248 | 6.4 | 9.7 | 0.00 | 0.03 | 0.03 | 65 | 1019.1 |
| 20260902163341 | 21 | 180 | 6.4 | 17.7 | 0.00 | 0.03 | 0.03 | 66 | 1019.1 |
| 20260902162320 | 21 | 225 | 6.4 | 20.9 | 0.00 | 0.03 | 0.03 | 64 | 1019.3 |
| 20260902161320 | 21 | 270 | 9.7 | 22.5 | 0.00 | 0.03 | 0.03 | 66 | 1019.4 |
| 20260902160342 | 21 | 270 | 6.4 | 11.3 | 0.00 | 0.03 | 0.03 | 66 | 1019.4 |
| 20260902155340 | 21 | 248 | 8.0 | 16.1 | 0.00 | 0.03 | 0.03 | 66 | 1019.3 |
| 20260902154320 | 21 | 248 | 9.7 | 20.9 | 0.00 | 0.03 | 0.03 | 66 | 1019.5 |
| 20260902153320 | 21 | 270 | 6.4 | 16.1 | 0.00 | 0.03 | 0.03 | 66 | 1019.5 |
| 20260902152331 | 21 | 293 | 4.8 | 8.0 | 0.00 | 0.03 | 0.03 | 67 | 1019.5 |
| 20260902151403 | 21 | 225 | 8.0 | 16.1 | 0.00 | 0.03 | 0.03 | 68 | 1019.6 |
| 20260902150320 | 21 | 248 | 6.4 | 14.5 | 0.00 | 0.03 | 0.03 | 69 | 1019.7 |